�������l�o���
Date,Time,MP-1(��Sv/h),MP-2(��Sv/h),MP-3(��Sv/h),MP-4(��Sv/h),MP-5(��Sv/h),MP-6(��Sv/h),MP-7(��Sv/h),MP-8(��Sv/h),����,����(m/s),���J
2023/01/16,00:00,0.578,0.821,0.524,1.062,0.729,0.336,0.588,0.558,�k�k��,4.9,�L
2023/01/16,00:10,0.577,0.822,0.523,1.056,0.729,0.335,0.588,0.558,�k�k��,5.2,�L
2023/01/16,00:20,0.577,0.817,0.522,1.056,0.728,0.335,0.586,0.558,�k�k��,4.6,�L
2023/01/16,00:30,0.576,0.818,0.521,1.057,0.724,0.336,0.588,0.556,�k�k��,4.5,�L
2023/01/16,00:40,0.575,0.817,0.522,1.052,0.724,0.335,0.588,0.558,�k��,4.9,�L
2023/01/16,00:50,0.576,0.815,0.520,1.051,0.724,0.335,0.586,0.557,�k��,4.2,�L
2023/01/16,01:00,0.576,0.812,0.521,1.049,0.725,0.337,0.586,0.556,�k��,4.4,�L
2023/01/16,01:10,0.574,0.812,0.521,1.048,0.723,0.335,0.586,0.557,�k��,4.4,�L
2023/01/16,01:20,0.575,0.813,0.521,1.046,0.723,0.336,0.586,0.556,�k��,4.1,�L
2023/01/16,01:30,0.573,0.812,0.521,1.045,0.724,0.336,0.584,0.557,�k��,4.2,�L
2023/01/16,01:40,0.574,0.812,0.521,1.046,0.722,0.336,0.584,0.556,�k��,4.4,�L
2023/01/16,01:50,0.572,0.810,0.521,1.044,0.720,0.335,0.584,0.556,�k��,4.4,�L
2023/01/16,02:00,0.574,0.807,0.520,1.042,0.720,0.334,0.584,0.555,�k��,3.8,�L
2023/01/16,02:10,0.572,0.808,0.518,1.039,0.718,0.334,0.583,0.556,�k��,5.6,�L
2023/01/16,02:20,0.570,0.806,0.519,1.038,0.716,0.335,0.584,0.554,�k�k��,2.9,�L
2023/01/16,02:30,0.571,0.808,0.519,1.037,0.718,0.334,0.583,0.555,�k��,4.5,�L
2023/01/16,02:40,0.570,0.805,0.518,1.037,0.717,0.333,0.583,0.554,�k��,3.9,�L
2023/01/16,02:50,0.568,0.803,0.517,1.033,0.717,0.334,0.585,0.554,�k��,4.7,�L
2023/01/16,03:00,0.568,0.803,0.517,1.032,0.716,0.334,0.582,0.554,�k��,4.9,�L
2023/01/16,03:10,0.568,0.805,0.516,1.031,0.715,0.332,0.581,0.554,�k��,4.4,�L
2023/01/16,03:20,0.568,0.803,0.518,1.031,0.713,0.332,0.581,0.553,�k��,4.4,�L
2023/01/16,03:30,0.568,0.802,0.517,1.032,0.714,0.331,0.581,0.553,�k��,5.2,�L
2023/01/16,03:40,0.567,0.801,0.517,1.030,0.713,0.329,0.582,0.552,�k��,4.9,�L
2023/01/16,03:50,0.565,0.800,0.516,1.029,0.713,0.331,0.580,0.552,�k��,4.4,�L
2023/01/16,04:00,0.566,0.800,0.512,1.027,0.712,0.329,0.582,0.551,�k��,4.6,�L
2023/01/16,04:10,0.563,0.800,0.513,1.030,0.713,0.329,0.579,0.552,�k��,6.1,�L
2023/01/16,04:20,0.563,0.801,0.513,1.028,0.712,0.329,0.579,0.552,�k��,5.8,�L
2023/01/16,04:30,0.563,0.801,0.510,1.028,0.711,0.329,0.580,0.553,�k��,6.1,�L
2023/01/16,04:40,0.562,0.799,0.510,1.026,0.711,0.328,0.579,0.552,�k��,6.0,�L
2023/01/16,04:50,0.562,0.798,0.512,1.025,0.708,0.329,0.581,0.551,�k��,5.8,�L
2023/01/16,05:00,0.563,0.797,0.512,1.026,0.710,0.330,0.579,0.552,�k��,5.8,�L
2023/01/16,05:10,0.558,0.797,0.511,1.025,0.711,0.330,0.580,0.551,�k��,6.0,�L
2023/01/16,05:20,0.562,0.796,0.511,1.025,0.710,0.329,0.581,0.552,�k��,5.2,�L
2023/01/16,05:30,0.560,0.796,0.510,1.024,0.709,0.329,0.579,0.552,�k��,6.3,�L
2023/01/16,05:40,0.558,0.797,0.510,1.021,0.707,0.327,0.578,0.550,�k��,5.0,�L
2023/01/16,05:50,0.559,0.796,0.510,1.022,0.707,0.326,0.579,0.550,�k��,4.7,�L
2023/01/16,06:00,0.557,0.795,0.507,1.019,0.705,0.326,0.579,0.550,�k��,5.5,�L
2023/01/16,06:10,0.557,0.796,0.508,1.021,0.706,0.325,0.579,0.550,�k��,7.4,�L
2023/01/16,06:20,0.557,0.794,0.508,1.020,0.706,0.323,0.579,0.551,�k��,5.8,�L
2023/01/16,06:30,0.558,0.797,0.508,1.021,0.704,0.324,0.578,0.549,�k��,5.3,�L
2023/01/16,06:40,0.559,0.794,0.509,1.022,0.707,0.323,0.578,0.551,�k��,5.5,�L
2023/01/16,06:50,0.558,0.796,0.508,1.022,0.707,0.326,0.580,0.550,�k��,4.9,�L
2023/01/16,07:00,0.558,0.795,0.510,1.021,0.708,0.327,0.580,0.549,�k��,4.4,�L
2023/01/16,07:10,0.559,0.796,0.511,1.023,0.709,0.327,0.579,0.550,�k��,5.2,�L
2023/01/16,07:20,0.559,0.795,0.509,1.020,0.707,0.326,0.578,0.549,�k��,5.8,�L
2023/01/16,07:30,0.558,0.794,0.507,1.019,0.705,0.325,0.578,0.550,�k��,5.6,�L
2023/01/16,07:40,0.557,0.795,0.506,1.020,0.704,0.324,0.580,0.549,�k��,7.7,�L
2023/01/16,07:50,0.556,0.793,0.505,1.020,0.702,0.323,0.578,0.549,�k��,6.7,�L
2023/01/16,08:00,0.556,0.791,0.506,1.021,0.703,0.324,0.579,0.550,�k��,7.7,�L
2023/01/16,08:10,0.555,0.792,0.505,1.019,0.703,0.323,0.577,0.550,�k��,7.4,�L
2023/01/16,08:20,0.554,0.789,0.503,1.017,0.702,0.321,0.579,0.549,�k��,7.7,�L
2023/01/16,08:30,0.554,0.792,0.504,1.018,0.704,0.323,0.578,0.549,�k�k��,7.8,�L
2023/01/16,08:40,0.554,0.793,0.505,1.017,0.705,0.322,0.579,0.550,�k��,6.1,�L
2023/01/16,08:50,0.555,0.791,0.504,1.018,0.703,0.322,0.580,0.549,�k��,6.0,�L
2023/01/16,09:00,0.556,0.792,0.506,1.018,0.704,0.321,0.580,0.549,�k�k��,6.9,�L
2023/01/16,09:10,0.555,0.790,0.504,1.019,0.702,0.322,0.579,0.549,�k��,5.2,�L
2023/01/16,09:20,0.556,0.795,0.505,1.019,0.705,0.322,0.579,0.549,�k��,5.0,�L
2023/01/16,09:30,0.554,0.789,0.503,1.018,0.704,0.323,0.578,0.550,�k��,4.1,�L
2023/01/16,09:40,0.555,0.790,0.503,1.019,0.703,0.321,0.579,0.550,�k��,4.4,�L
2023/01/16,09:50,0.552,0.788,0.502,1.018,0.702,0.321,0.578,0.548,�k��,5.8,�L
2023/01/16,10:00,0.553,0.790,0.502,1.017,0.701,0.320,0.577,0.550,�k�k��,5.0,�L
2023/01/16,10:10,0.554,0.792,0.503,1.018,0.701,0.320,0.580,0.549,�k��,5.2,�L
2023/01/16,10:20,0.552,0.789,0.503,1.015,0.702,0.320,0.579,0.549,�k�k��,5.5,��
2023/01/16,10:30,0.552,0.791,0.503,1.017,0.702,0.320,0.578,0.550,�k�k��,5.6,��
2023/01/16,10:40,0.553,0.791,0.501,1.016,0.703,0.319,0.578,0.550,�k�k��,4.7,��
2023/01/16,10:50,0.551,0.791,0.502,1.016,0.704,0.318,0.578,0.549,�k�k��,4.4,��
2023/01/16,11:00,0.554,0.792,0.503,1.017,0.701,0.318,0.578,0.548,�k�k��,4.4,��
2023/01/16,11:10,0.553,0.790,0.502,1.018,0.702,0.319,0.578,0.548,�k�k��,4.9,��
2023/01/16,11:20,0.552,0.792,0.501,1.017,0.702,0.319,0.578,0.550,�k�k��,3.6,��
2023/01/16,11:30,0.554,0.789,0.501,1.019,0.702,0.318,0.577,0.548,�k�k��,4.9,��
2023/01/16,11:40,0.552,0.792,0.503,1.018,0.703,0.319,0.577,0.549,�k�k��,4.7,�L
2023/01/16,11:50,0.552,0.793,0.502,1.016,0.703,0.318,0.577,0.549,�k�k��,5.3,�L
2023/01/16,12:00,0.553,0.792,0.502,1.020,0.704,0.319,0.579,0.549,�k�k��,4.9,�L
2023/01/16,12:10,0.553,0.793,0.502,1.020,0.704,0.320,0.580,0.548,�k�k��,5.2,�L
2023/01/16,12:20,0.554,0.794,0.503,1.018,0.704,0.320,0.578,0.549,�k�k��,4.9,�L
2023/01/16,12:30,0.554,0.794,0.504,1.018,0.703,0.319,0.579,0.548,�k,4.5,��
2023/01/16,12:40,0.551,0.793,0.503,1.019,0.704,0.319,0.581,0.551,�k�k��,4.2,��
2023/01/16,12:50,0.553,0.794,0.504,1.018,0.704,0.319,0.578,0.551,�k,3.8,��
2023/01/16,13:00,0.554,0.793,0.503,1.019,0.704,0.320,0.579,0.551,�k�k��,4.6,��
2023/01/16,13:10,0.555,0.794,0.504,1.019,0.705,0.320,0.581,0.550,�k�k��,4.9,��
2023/01/16,13:20,0.555,0.792,0.504,1.019,0.704,0.320,0.579,0.550,�k,3.9,��
2023/01/16,13:30,0.556,0.794,0.503,1.019,0.705,0.319,0.578,0.549,�k,3.8,��
2023/01/16,13:40,0.554,0.792,0.503,1.020,0.704,0.318,0.578,0.550,�k�k��,6.0,�L
2023/01/16,13:50,0.553,0.795,0.504,1.019,0.706,0.318,0.579,0.550,�k�k��,6.6,��
2023/01/16,14:00,0.553,0.795,0.503,1.021,0.704,0.320,0.579,0.549,�k�k��,6.3,��
2023/01/16,14:10,0.552,0.796,0.501,1.019,0.705,0.319,0.577,0.550,�k�k��,4.4,��
2023/01/16,14:20,0.556,0.795,0.503,1.021,0.706,0.319,0.580,0.549,�k�k��,5.6,��
2023/01/16,14:30,0.554,0.792,0.502,1.020,0.706,0.318,0.578,0.550,�k�k��,6.4,��
2023/01/16,14:40,0.556,0.794,0.502,1.020,0.705,0.320,0.578,0.550,�k��,5.2,��
2023/01/16,14:50,0.556,0.794,0.502,1.018,0.705,0.318,0.577,0.551,�k�k��,6.1,��
2023/01/16,15:00,0.555,0.795,0.503,1.021,0.705,0.319,0.577,0.549,�k��,7.4,��
2023/01/16,15:10,0.554,0.796,0.504,1.020,0.706,0.318,0.577,0.551,�k��,5.3,��
2023/01/16,15:20,0.555,0.795,0.503,1.023,0.704,0.319,0.579,0.549,�k��,6.9,��
2023/01/16,15:30,0.557,0.794,0.503,1.020,0.706,0.319,0.579,0.549,�k��,8.8,��
2023/01/16,15:40,0.555,0.797,0.502,1.021,0.705,0.319,0.578,0.549,�k��,5.8,��
2023/01/16,15:50,0.557,0.795,0.503,1.022,0.706,0.319,0.578,0.549,�k��,6.3,��
2023/01/16,16:00,0.557,0.795,0.502,1.021,0.708,0.320,0.577,0.550,�k��,6.3,��
2023/01/16,16:10,0.555,0.795,0.503,1.019,0.708,0.320,0.579,0.549,�k��,6.9,��
2023/01/16,16:20,0.557,0.797,0.503,1.021,0.706,0.319,0.580,0.550,�k��,7.2,��
2023/01/16,16:30,0.554,0.797,0.504,1.020,0.706,0.319,0.580,0.549,�k��,6.9,��
2023/01/16,16:40,0.555,0.797,0.504,1.021,0.706,0.320,0.579,0.550,�k��,11.0,��
2023/01/16,16:50,0.555,0.797,0.504,1.022,0.706,0.320,0.579,0.550,�k��,11.6,��
2023/01/16,17:00,0.555,0.795,0.504,1.021,0.706,0.319,0.580,0.550,�k��,11.2,��
2023/01/16,17:10,0.554,0.796,0.503,1.023,0.706,0.317,0.579,0.550,�k��,8.8,��
2023/01/16,17:20,0.555,0.796,0.504,1.021,0.708,0.319,0.579,0.549,�k��,8.5,��
2023/01/16,17:30,0.556,0.797,0.504,1.022,0.707,0.318,0.580,0.549,�k��,9.1,��
2023/01/16,17:40,0.556,0.798,0.503,1.023,0.707,0.318,0.578,0.551,�k��,8.3,��
2023/01/16,17:50,0.554,0.794,0.503,1.022,0.707,0.317,0.579,0.550,�k��,8.5,��
2023/01/16,18:00,0.555,0.797,0.503,1.022,0.708,0.318,0.578,0.549,�k��,5.2,��
2023/01/16,18:10,0.554,0.798,0.503,1.024,0.707,0.318,0.580,0.550,�k��,5.5,��
2023/01/16,18:20,0.553,0.798,0.502,1.023,0.706,0.318,0.578,0.551,�k��,6.9,��
2023/01/16,18:30,0.554,0.797,0.503,1.023,0.707,0.318,0.580,0.550,�k��,5.5,��
2023/01/16,18:40,0.555,0.797,0.504,1.023,0.706,0.319,0.577,0.552,�k��,6.6,��
2023/01/16,18:50,0.552,0.797,0.503,1.023,0.706,0.317,0.579,0.551,�k��,8.8,��
2023/01/16,19:00,0.556,0.798,0.503,1.024,0.706,0.319,0.578,0.551,�k�k��,7.7,��
2023/01/16,19:10,0.554,0.797,0.502,1.022,0.709,0.318,0.577,0.552,�k�k��,4.7,��
2023/01/16,19:20,0.555,0.795,0.503,1.022,0.706,0.317,0.580,0.551,�k��,4.5,��
2023/01/16,19:30,0.553,0.797,0.503,1.023,0.706,0.318,0.579,0.549,�k��,6.0,��
2023/01/16,19:40,0.555,0.797,0.503,1.022,0.707,0.318,0.579,0.550,�k��,6.3,��
2023/01/16,19:50,0.554,0.799,0.503,1.022,0.708,0.318,0.578,0.550,�k�k��,5.5,��
2023/01/16,20:00,0.554,0.799,0.503,1.022,0.707,0.319,0.578,0.549,�k�k��,5.5,��
2023/01/16,20:10,0.554,0.798,0.503,1.022,0.708,0.318,0.579,0.551,�k��,6.0,��
2023/01/16,20:20,0.553,0.796,0.502,1.023,0.707,0.318,0.579,0.551,�k��,4.9,��
2023/01/16,20:30,0.553,0.797,0.503,1.023,0.707,0.319,0.576,0.549,�k�k��,3.8,��
2023/01/16,20:40,0.554,0.798,0.500,1.021,0.708,0.316,0.578,0.550,�k�k��,4.4,��
2023/01/16,20:50,0.554,0.799,0.502,1.024,0.707,0.317,0.578,0.551,�k��,4.9,��
2023/01/16,21:00,0.554,0.797,0.503,1.021,0.706,0.319,0.579,0.550,�k��,3.9,��
2023/01/16,21:10,0.554,0.798,0.502,1.024,0.707,0.318,0.578,0.549,�k�k��,3.1,��
2023/01/16,21:20,0.553,0.797,0.502,1.023,0.707,0.317,0.579,0.549,�k�k��,3.2,��
2023/01/16,21:30,0.551,0.796,0.503,1.021,0.708,0.318,0.576,0.549,�k��,3.4,��
2023/01/16,21:40,0.555,0.796,0.502,1.023,0.708,0.318,0.578,0.550,�k��,3.4,��
2023/01/16,21:50,0.554,0.797,0.503,1.021,0.707,0.318,0.578,0.550,�k��,3.2,��
2023/01/16,22:00,0.553,0.798,0.501,1.023,0.708,0.317,0.577,0.552,�k��,3.8,��
2023/01/16,22:10,0.553,0.797,0.502,1.023,0.707,0.317,0.577,0.550,�k��,3.6,��
2023/01/16,22:20,0.554,0.798,0.502,1.022,0.708,0.316,0.575,0.549,�k�k��,2.7,��
2023/01/16,22:30,0.552,0.796,0.501,1.022,0.707,0.318,0.576,0.548,�k��,2.6,��
2023/01/16,22:40,0.553,0.796,0.502,1.024,0.706,0.318,0.578,0.548,�k��,2.6,��
2023/01/16,22:50,0.553,0.797,0.502,1.024,0.707,0.318,0.577,0.548,�k��,2.3,��
2023/01/16,23:00,0.553,0.797,0.502,1.024,0.706,0.318,0.579,0.548,�k�k��,2.3,��
2023/01/16,23:10,0.551,0.797,0.503,1.024,0.706,0.318,0.577,0.549,�k�k��,2.1,��
2023/01/16,23:20,0.554,0.796,0.501,1.023,0.707,0.318,0.576,0.549,�k��,1.3,��
2023/01/16,23:30,0.554,0.797,0.502,1.022,0.706,0.317,0.575,0.548,���k��,1.7,��
2023/01/16,23:40,0.553,0.797,0.502,1.020,0.706,0.318,0.577,0.549,��,1.7,��
2023/01/16,23:50,0.553,0.795,0.501,1.023,0.706,0.317,0.576,0.548,���k��,1.9,��
